www.pogodaiklimat.ru
ПОГОДА в Форт-Ирвин / Барстоу
Время
и дата
04:55 21.09
05:55 21.09
06:55 21.09
07:55 21.09
08:55 21.09
09:55 21.09
10:55 21.09
11:55 21.09
16:55 21.09
17:55 21.09
18:55 21.09
19:55 21.09
20:55 21.09
21:55 21.09
22:08 21.09
22:55 21.09
01:55 22.09
02:55 22.09
03:55 22.09
04:55 22.09
05:55 22.09
06:55 22.09
07:55 22.09
08:55 22.09
09:55 22.09
10:55 22.09
11:55 22.09
12:55 22.09
13:55 22.09
14:55 22.09
15:55 22.09
16:55 22.09
17:55 22.09
18:55 22.09
19:55 22.09
20:55 22.09
21:55 22.09
22:55 22.09
23:55 22.09
00:55 23.09
01:55 23.09
02:55 23.09
03:55 23.09
04:55 23.09
05:55 23.09
06:55 23.09
07:55 23.09
08:55 23.09
Ветер
(напр.,м/с)
Видим. Явления Облачность Т
(С)
Тd
(С)
f
(%)
Тe
(С)
Тes
(С)
Комфортность P
(гПа)
Po
(гПа)
Тmin
(С)
Tmax
(С)
R
(мм)
R24
(мм)
S
(см)
Ю 3 14 км ясно +15.6 +11.0 74 +15 +15 1005.5 925.0
СЗ 3 13 км ясно +15.7 +10.7 72 +15 +15 1006.7 925.9
З 5 14 км ясно +16.7 +10.5 67 +16 +16 1007.5 926.5
З 6 16 км ясно +18.2 +10.5 61 +18 +18 1007.8 926.8
штиль 0 16 км ясно +20.0 +10.4 54 +21 +27 комфорт 1008.2 927.2
Ю 6 16 км ясно +21.7 +11.7 53 +24 +27 комфорт 1008.0 927.2 +14.9 +21.7
ЮЗ 4 16 км ясно +23.6 +9.6 41 +25 +32 комфорт 1007.7 926.8
ЮЗ 6 16 км ясно +25.3 +9.9 38 +26 +32 жарко 1006.9 926.2
ЮЗ 10 16 км ясно +24.0 +8.0 36 +24 +25 комфорт 1006.1 925.3
ЮЗ 8 16 км ясно +22.4 +8.5 41 +24 +24 комфорт 1006.9 925.9
Ю 7 16 км ясно +20.8 +9.7 49 +22 +22 комфорт 1007.3 926.2
ЮЗ 7
{11}
16 км ясно +19.2 +11.0 59 +20 +20 1008.3 927.2
Ю 6
{12}
16 км ясно +18.2 +10.3 60 +18 +18 1009.0 927.8
Ю 8 16 км ясно +17.2 +10.3 64 +16 +16 1009.3 928.1 +17.1 +25.0
ЮЗ 5 16 км ясно +17.0 +11.0 68 +16 +16 1009.5 928.4
ЮЗ 9
{11}
16 км ясно +18.8 +6.6 45 +18 +18 1009.1 928.1
штиль 0 16 км ясно +16.7 +6.5 51 +17 +17 928.7
штиль 0 16 км ясно +13.9 +7.7 66 +14 +14 928.7
З 2 16 км ясно +13.7 +7.5 66 +13 +13 929.3 +12.8 +19.8
З 2 16 км ясно +14.6 +7.6 63 +14 +14 1011.3 929.9
С 2 14 км ясно +14.0 +7.5 65 +14 +14 1012.2 930.6
С 3 14 км ясно +14.4 +8.1 66 +14 +14 1013.1 931.2
С 3 16 км ясно +17.2 +7.8 54 +17 +18 1013.3 931.5
штиль 0 16 км ясно +20.0 +6.0 40 +21 +26 комфорт 1013.5 931.8
штиль 0 16 км ясно +22.4 +4.0 30 +22 +33 комфорт 1013.0 931.5 +12.8 +22.4
Ю 4 16 км ясно +22.5 +6.7 36 +23 +31 комфорт 1013.2 931.8
ЮВ 2 16 км 2/0 8100 m
[Ci]
+24.4 +4.7 28 +24 +37 комфорт 1012.5 931.2
В 3 16 км ясно +25.3 +4.4 26 +25 +37 комфорт 1011.8 930.6
ЮВ 4 16 км 2/0 7200 m
[Ci]
+25.8 +4.3 25 +25 +33 комфорт 1011.5 930.3
Ю 4 16 км ясно +26.4 +3.6 23 +25 +32 комфорт 1011.3 929.9
ЮЗ 5 16 км ясно +26.2 +4.0 24 +25 +28 комфорт 1011.3 929.9 +22.2 +26.6
ЮЗ 4 16 км ясно +24.9 +8.8 36 +25 +27 комфорт 1011.3 929.9
ЮЗ 5 16 км 2/0 6000 m
[Ac]
+23.7 +8.9 39 +24 +25 комфорт 1011.7 930.3
Ю 2 16 км 8/0 5700 m
[Ac]
+21.1 +10.6 51 +23 +23 комфорт 1012.2 930.6
штиль 0 16 км 2/0 5700 m
[Ac]
+22.3 +2.4 27 +22 +22 комфорт 1011.9 930.6
З 3 16 км ясно +22.5 +3.1 28 +22 +22 комфорт 1011.7 930.6
штиль 0 16 км 8/0 4500 m
[Ac]
+22.4 +1.4 25 +22 +22 комфорт 1012.0 930.9 +20.3 +26.3
штиль 0 16 км 10/0 4200 m
[Ac]
+21.9 +4.9 33 +22 +22 комфорт 1012.0 930.9
С 2 16 км ясно +20.4 +3.6 33 +22 +22 комфорт 1011.7 930.6
С 2 16 км 2/0 6000 m
[Ac]
+18.1 +3.2 37 +19 +19 1012.0 930.9
СЗ 3 16 км 5/0 4200 m
[Ac]
+18.2 +2.9 36 +18 +18 1011.4 930.3
штиль 0 16 км 5/0 5400 m
[Ac]
+18.9 +1.4 31 +19 +19 1011.6 930.6
С 2 16 км ясно +16.9 +1.7 36 +17 +17 1012.0 930.9 +16.1 +22.4
С 3 16 км ясно +16.8 0.0 32 +17 +17 1012.2 930.9
З 3 16 км 2/0 4500 m
[Ac]
+17.9 -0.9 28 +18 +18 1012.9 931.5
С 3 16 км ясно +16.7 +1.9 37 +17 +17 1013.8 932.1
СВ 2 16 км ясно +20.3 +2.6 31 +21 +23 комфорт 1013.9 932.4
штиль 0 16 км ясно +23.4 +1.7 24 +23 +28 комфорт 1013.6 932.4
Местоположение метеостанции Bicycle Lake Army Airfield: широта 35.2833 долгота -116.6167 высота над уровнем моря 716 м.
В архиве по умолчанию представлена погода в Форт-Ирвин / Барстоу за последние 1-2 суток. Обновление информации о фактической погоде в базе происходит ежечасно! Архивные данные за месяц целиком и за предыдущие месяцы Вы можете получить, выбрав интересующий диапазон дат из раскрывающегося списка и нажав кнопку "Ввод!".
Внимание! Архив погоды МЕТАР в базе сайта по станциям, не включенным в климатический монитор, хранится не более 60 дней. Нет смысла пытаться выбрать более раннюю дату.
*Определитесь, кто Вы:
Внимание! Время в таблицах - местное (без учета летнего времени). Для получения всемирного времени необходимо вычесть поправку, которая равна -8 ч.
Смотрите также архив погоды в соседних городах и на ближайших метеорологических станциях:
Партнеры нашего сайта:      
Пояснения к столбцам:
  • Ветер - указаны скорость ветра в м/с - средняя за 10 мин, порывы в срок и между сроками (в фигурных скобках) и направление, откуда дует ветер: С - северный,
  • СВ - северо-восточный, В - восточный, ЮВ - юго-восточный, Ю - южный, ЮЗ - юго-западный, З - западный, СЗ - северо-западный.
  • Видимость - горизонтальная дальность видимости в метрах или километрах. При видимости от 1 до 10 км при отсутствии осадков обычно наблюдается дымка, при ухудшении видимости до 1 км и менее - туман. В сухую погоду видимость может ухудшаться дымом, пылью или мглою.
  • Явления - указаны атмосферные явления, наблюдавшиеся в срок или в последний час перед сроком; фигурными скобками обозначены явления, наблюдавшиеся между сроками (за 1-3 часа до срока); квадратными скобками обозначены град или гололедные отложения с указанием их диаметра в мм.
  • Облачность - указаны через наклонную черту общая и нижняя облачность в баллах и высота нижней границы облаков в метрах; квадратными скобками обозначены формы облаков: Ci - перистые, Cs - перисто-слоистые, Cc - перисто-кучевые, Ac - высококучевые, As - высокослоистые, Sc - слоисто-кучевые, Ns - слоисто-дождевые, Cu - кучевые, Cb - кучево-дождевые. Подробнее классификацию облаков см. в Атласе облаков (PDF).
  • T - Температура воздуха - температура, измеренная на высоте 2 м над землей.
  • Td - Температура точки росы - температура, при понижении до которой содержащийся в воздухе водяной пар достигнет насыщения.
  • f - Относительная влажность воздуха - влажноcть воздуха, измеренная на высоте 2 м над землей.
  • Te - Эффективная температура - температура, которую ощущает одетый по сезону человек в тени. Характеристика душности погоды. При расчете учитывается влияние влажности воздуха и скорости ветра на теплоощущения человека.
  • Tes - Эффективная температура на солнце - температура, которую ощущает человек, с поправкой на солнечный нагрев. Характеристика знойности погоды. Зависит от высоты солнца над горизонтом, облачности и скорости ветра. Ночью, в пасмурную погоду, а также при ветре 12 м/с и более поправка равна нулю.
  • P - Атмосферное давление - приведенное к уровню моря атмосферное давление.
  • Po - Атмосферное давление - измеренное на уровне метеостанции атмосферное давление.
  • Tmin - Минимальная температура - минимум температуры воздуха на высоте 2 м над землей.
  • Tmax - Максимальная температура - максимум температуры воздуха на высоте 2 м над землей.
  • R - Количество осадков - Количество выпавших осадков за период времени, мм. При наведении курсора мыши на число - период времени, за который выпало указанное количество осадков.
  • R24 - Количество осадков - Количество выпавших осадков за 24 часа, мм.
  • S - Снежный покров - Высота снежного покрова, см. При наведении курсора мыши на число - состояние снежного покрова и степень покрытия местности в баллах.